Regional Weather Roundup
Issued by NWS State College, PA

Home | Current Version | Previous Version | Text Only | Print | Product List | Glossary On
Versions: 1 2 3 4 5 6 7 8 9 10 11 12 13 14 15 16 17 18 19 20 21 22 23 24 25 26 27 28 29 30 31 32 33 34 35 36 37 38 39 40 41 42 43 44 45 46 47 48 49 50
000
ASUS41 KCTP 300703
RWRCTP

REGIONAL WEATHER ROUNDUP
NATIONAL WEATHER SERVICE STATE COLLEGE PA
300 AM EDT TUE AUG 30 2016

Note: "fair" indicates few or no clouds below 12,000 feet with no
significant weather and/or obstructions to visibility.

* = STATION THAT DOES NOT REPORT PRECIPITATION /E.G. RAIN...SNOW...ETC/
    THUNDER OR FOG.

PAZ002>004-007>009-013>016-020>023-029>032-300800-
WESTERN PENNSYLVANIA

CITY           SKY/WX    TMP DP  RH WIND       PRES   REMARKS
ERIE           PTCLDY    62  57  83 S3        30.20S
MEADVILLE      PTCLDY    60  54  80 CALM      30.22F
FRANKLIN*        N/A     54  50  87 N3        30.23S
NEW CASTLE     FAIR      55  54  96 CALM      30.22
BEAVER COUNTY  NOT AVBL
BUTLER*        NOT AVBL
PITTSBURGH INT CLEAR     67  57  70 N5        30.19S
PITTSBURGH     CLEAR     67  57  70 N3        30.18S
INDIANA*       CLEAR     59  59 100 CALM      30.22S
LATROBE        CLEAR     61  61 100 CALM      30.20S
WASHINGTON CO* CLEAR     59  57  94 CALM      30.20S
$$

PAZ004>006-010>012-017>019-024>028-033>037-041-042-045-046-049>053-300800-
CENTRAL PENNSYLVANIA

CITY           SKY/WX    TMP DP  RH WIND       PRES   REMARKS
BRADFORD       CLEAR     53  53 100 CALM      30.25R
DUBOIS         CLEAR     62  56  80 NE3       30.22S
CLEARFIELD     NOT AVBL
JOHNSTOWN      CLEAR     63  59  87 S3        30.23S
ALTOONA        CLEAR     58  58 100 CALM      30.21R
STATE COLLEGE  MOCLDY    62  61  96 CALM      30.21R
WILLIAMSPORT   CLEAR     63  59  87 CALM      30.18R
SELINSGROVE    CLEAR     60  60 100 CALM      30.19R
FT INDIANTOWN  CLEAR     68  58  72 S1        30.16R
CAPITAL CITY   CLEAR     67  61  81 W3        30.16R
HARRISBURG     CLEAR     70  63  78 N3        30.15R
YORK           CLEAR     60  58  92 CALM      30.16R
$$

PAZ038>040-043-044-047-048-054-055-060>062-067>071-300800-
EASTERN PENNSYLVANIA

CITY           SKY/WX    TMP DP  RH WIND       PRES   REMARKS
SCRANTON       CLEAR     60  56  86 E3        30.19R
MOUNT POCONO   CLEAR     55  52  89 W3        30.21S
ALLENTOWN      CLEAR     62  58  86 CALM      30.16S
QUAKERTOWN*    SUNNY     61  57  88 CALM      30.17S
READING        CLEAR     66  59  78 N3        30.15S
LANCASTER      CLEAR     68  62  81 NE5       30.15R
COATESVILLE    SUNNY     70  59  68 N5        30.17R
POTTSTOWN      CLEAR     66  59  78 CALM      30.17S
BLUE BELL      CLEAR     66  59  77 CALM      30.13S
DOYLESTOWN     CLEAR     68  61  78 NE5       30.14F
WILLOW GROVE   NOT AVBL
NORTH PHILA    CLEAR     72  60  66 N7        30.14S
PHILADELPHIA   CLEAR     74  59  59 N6        30.13R
$$




USA.gov is the U.S. government's official web portal to all federal, state and local government web resources and services.